[[{"header":{"parameterUnit":"m.s-1","parameterCategory":1,"la1":30.2991,"la2":30.254,"lo1":-89.0895,"lo2":-89.0444,"dy":0.0017,"dx":0.0017,"nx":28,"ny":28,"refTime":"2023-10-08T21:00:00:Z","depth":0,"parameterNumber":2,"parameterNumberName":"U-component_of_WINDS"},"data":[0,0,0,0,0,0,0,0,0,0,0,0,0,0,0,0,0,0,0,0,0,0,0,0,0,0,0,0,0,0,0,0,0,0,0,0,0,0,0,0,0,0,0,0,0,0,0,0,0,0,0,0,0,0,0,0,0,0,0.7746,0.7747,0,0.7864,0.7866,0.7867,0.7916,0.7915,0.7915,0.7915,0.8033,0.8036,0.8039,0,0,0,0,0,0,0,0,0,0,0,0,0,0.7558,0.7561,0.7746,0.7747,0.7749,0.7864,0.7866,0.7867,0.7916,0.7915,0.7915,0.7915,0.8032,0.8036,0.804,0,0,0,0,0,0,0,0,0,0,0,0,0,0.7654,0.7562,0.7746,0.7787,0.7792,0.7864,0.7866,0.7868,0.7916,0.7915,0.7915,0.7915,0.803,0.8035,0.804,0.8079,0,0,0.8056,0.8058,0,0,0,0,0,0,0,0,0.7649,0.7661,0.7779,0.7784,0.779,0.7875,0.7843,0.7938,0.7916,0.7869,0.7915,0.7914,0.798,0.799,0.8012,0.8084,0.8089,0.8056,0.8059,0.8061,0.8063,0,0,0,0,0,0,0,0.7642,0.7656,0.7793,0.7781,0.7787,0.7798,0.7812,0.7861,0.7925,0.7873,0.7877,0.789,0.7983,0.8007,0.8016,0.8091,0.8056,0.8061,0.8064,0.8066,0.82,0.8201,0,0,0,0,0,0,0.7629,0.765,0.7789,0.7796,0.7717,0.7802,0.7817,0.7848,0.7925,0.7936,0.789,0.7892,0.7999,0.801,0.802,0.807,0.8061,0.8066,0.8069,0.82,0.82,0.8201,0,0,0,0,0,0,0.7625,0.7641,0.7784,0.7724,0.7743,0.7806,0.784,0.785,0.7875,0.7938,0.7949,0.7904,0.7999,0.8013,0.8064,0.8075,0.8068,0.8073,0.8199,0.82,0.82,0.817,0,0,0,0,0,0,0.7619,0.7639,0.7655,0.7724,0.7746,0.7827,0.7841,0.7853,0.7884,0.7887,0.7953,0.7964,0.8,0.8056,0.8069,0.8082,0.8077,0.8198,0.8199,0.82,0.817,0.817,0.8169,0,0,0,0,0,0.7612,0.7641,0.7656,0.7672,0.7768,0.7828,0.784,0.7882,0.7884,0.7901,0.7941,0.7962,0.8071,0.8061,0.8076,0.809,0.8198,0.8199,0.82,0.8171,0.817,0.8169,0,0,0,0,0,0,0.7571,0.7651,0.7668,0.7721,0.7767,0.7836,0.7858,0.788,0.7925,0.7926,0.7975,0.799,0.8036,0.8068,0.8055,0.8131,0.8136,0.814,0.8109,0.8108,0.8108,0.8099,0.8081,0,0,0,0,0,0.7568,0.7611,0.7678,0.7718,0.774,0.7795,0.7822,0.785,0.79,0.7919,0.7964,0.801,0.8055,0.8083,0.8128,0.8175,0.819,0.8192,0.8191,0.8191,0.8194,0.8221,0.8222,0.8205,0.8205,0.8205,0,0,0.7562,0.7611,0.7635,0.7711,0.775,0.7792,0.7811,0.7855,0.7886,0.7926,0.7977,0.8011,0.8066,0.8115,0.8139,0.8143,0.8202,0.8192,0.8191,0.8195,0.8222,0.8223,0.8225,0.8206,0.8205,0.8205,0,0,0.7573,0.7615,0.7653,0.7692,0.7751,0.7787,0.7796,0.7862,0.7886,0.7938,0.7969,0.8006,0.8083,0.812,0.815,0.8174,0.8195,0.8187,0.8184,0.8209,0.8211,0.8212,0.8221,0.8223,0.819,0.819,0.819,0,0.7558,0.7624,0.7669,0.7711,0.7743,0.7782,0.782,0.7855,0.7925,0.7946,0.795,0.8047,0.8086,0.8145,0.815,0.8173,0.8184,0.818,0.8207,0.8209,0.8211,0.822,0.8223,0.8189,0.8189,0.8189,0.8189,0,0.7602,0.7647,0.767,0.7739,0.7773,0.7813,0.7863,0.7892,0.7917,0.7952,0.8004,0.8053,0.8108,0.8124,0.8148,0.8186,0.8186,0.8198,0.8204,0.8211,0.822,0.8223,0.8187,0.8187,0.8188,0.8188,0,0,0.7591,0.7683,0.7691,0.7722,0.7791,0.7826,0.7867,0.7922,0.7946,0.7993,0.8028,0.8091,0.8102,0.8135,0.8164,0.8186,0.8202,0.8196,0.8198,0.8195,0.8246,0.8237,0.824,0.8216,0.8217,0.8218,0.8241,0,0.7611,0.7687,0.7729,0.7787,0.7829,0.7866,0.7901,0.7946,0.798,0.8019,0.8056,0.81,0.8112,0.8132,0.8156,0.8195,0.8213,0.8194,0.8249,0.825,0.8234,0.8245,0.8235,0.8255,0.8245,0.8246,0.8246,0,0.7645,0.7692,0.7755,0.7819,0.7838,0.7869,0.7922,0.796,0.8011,0.8034,0.8071,0.8099,0.8143,0.8145,0.8205,0.8191,0.8216,0.8238,0.824,0.8247,0.8248,0.8251,0.8262,0.8265,0.8252,0.8252,0.8251,0,0.763,0.7709,0.7757,0.7783,0.7858,0.7879,0.7911,0.7962,0.7992,0.8039,0.8059,0.8109,0.8136,0.8174,0.8215,0.8213,0.827,0.8276,0.829,0.8289,0.83,0.8299,0.8315,0.8316,0.8316,0.8316,0.8316,0,0.7648,0.7685,0.7752,0.7781,0.7823,0.787,0.791,0.7944,0.7989,0.8025,0.806,0.8093,0.8145,0.8184,0.8216,0.826,0.8272,0.8291,0.8299,0.8288,0.8286,0.8305,0.8305,0.8317,0.8316,0.8316,0.8316,0,0.7638,0.7685,0.774,0.7806,0.7824,0.7852,0.7908,0.7938,0.7973,0.8018,0.8031,0.8086,0.8134,0.8178,0.8241,0.8263,0.8307,0.8318,0.829,0.8295,0.8306,0.8304,0.8335,0.8341,0.8337,0.8337,0.8337,0,0.7647,0.7676,0.7746,0.7774,0.7805,0.7848,0.788,0.7926,0.7957,0.8017,0.8039,0.8089,0.8132,0.8206,0.8251,0.8299,0.8311,0.8318,0.8318,0.8306,0.8311,0.8309,0.8312,0.8317,0.8317,0.8317,0.8317,0,0.7657,0.7679,0.7723,0.7775,0.7812,0.7855,0.7899,0.7919,0.7973,0.8006,0.8056,0.8089,0.8154,0.8203,0.8256,0.8288,0.8311,0.8317,0.8322,0.8311,0.8294,0.8304,0.8288,0.8316,0.8316,0.8316,0.8316,0.8316,0.7657,0.7685,0.7739,0.7787,0.7825,0.7865,0.7896,0.7936,0.7978,0.8035,0.8059,0.8109,0.8159,0.8234,0.8265,0.8304,0.8309,0.8317,0.8319,0.8321,0.8318,0.8288,0.8314,0.8314,0.8314,0.8314,0.8314,0,0.7669,0.7705,0.7749,0.781,0.7848,0.7867,0.7917,0.7947,0.7991,0.8036,0.8077,0.8134,0.8182,0.823,0.828,0.8302,0.8314,0.8314,0.8313,0.8319,0.8311,0.8301,0.8303,0.8303,0.8303,0.8303,0.8303,0.8303,0.7679,0.7728,0.7755,0.7822,0.7858,0.7908,0.7935,0.7972,0.8008,0.807,0.811,0.8142,0.8188,0.8242,0.8286,0.8299,0.8316,0.8313,0.8328,0.832,0.832,0.8321,0.8312,0.8316,0.8316,0.8334,0.8334,0.8334]},{"header":{"parameterUnit":"m.s-1","parameterCategory":1,"la1":30.2991,"la2":30.254,"lo1":-89.0895,"lo2":-89.0444,"dy":0.0017,"dx":0.0017,"nx":28,"ny":28,"refTime":"2023-10-08T21:00:00:Z","depth":0,"parameterNumber":3,"parameterNumberName":"V-component_of_WINDS"},"data":[0,0,0,0,0,0,0,0,0,0,0,0,0,0,0,0,0,0,0,0,0,0,0,0,0,0,0,0,0,0,0,0,0,0,0,0,0,0,0,0,0,0,0,0,0,0,0,0,0,0,0,0,0,0,0,0,0,0,2.6864,2.6863,0,2.6818,2.6818,2.6817,2.6773,2.6772,2.6772,2.6771,2.6722,2.6721,2.672,0,0,0,0,0,0,0,0,0,0,0,0,0,2.691,2.6909,2.6864,2.6863,2.6863,2.6818,2.6818,2.6817,2.6773,2.6772,2.6772,2.6771,2.6722,2.6721,2.672,0,0,0,0,0,0,0,0,0,0,0,0,0,2.688,2.6909,2.6864,2.6835,2.6832,2.6818,2.6818,2.6817,2.6773,2.6772,2.6771,2.6771,2.6723,2.6721,2.672,2.673,0,0,2.6717,2.6716,0,0,0,0,0,0,0,0,2.6881,2.6878,2.684,2.6837,2.6834,2.68,2.6816,2.6788,2.6773,2.6796,2.6771,2.677,2.6749,2.6745,2.6738,2.6728,2.6725,2.6717,2.6716,2.6715,2.6715,0,0,0,0,0,0,0,2.6884,2.688,2.6846,2.684,2.6836,2.6824,2.6819,2.681,2.6777,2.6794,2.679,2.6786,2.6747,2.674,2.6737,2.6725,2.6717,2.6716,2.6715,2.6714,2.6718,2.6719,0,0,0,0,0,0,2.689,2.6882,2.6847,2.6844,2.6856,2.6824,2.6818,2.6812,2.6777,2.6771,2.6786,2.6784,2.6742,2.6738,2.6735,2.6743,2.6715,2.6714,2.6714,2.6717,2.6718,2.6719,0,0,0,0,0,0,2.6892,2.6888,2.6849,2.6862,2.6856,2.6824,2.6818,2.6812,2.6804,2.6772,2.6766,2.6785,2.6741,2.6737,2.6731,2.6741,2.6714,2.6713,2.6716,2.6717,2.6718,2.6759,0,0,0,0,0,0,2.6893,2.6888,2.6892,2.6863,2.6856,2.6847,2.6818,2.6811,2.6803,2.6799,2.6769,2.6764,2.674,2.6733,2.673,2.6738,2.6712,2.6715,2.6717,2.6718,2.6757,2.6762,2.6766,0,0,0,0,0,2.6895,2.6905,2.6893,2.6889,2.686,2.6848,2.6844,2.6817,2.6804,2.6807,2.6786,2.6764,2.674,2.6733,2.6729,2.6737,2.6714,2.6716,2.6718,2.6755,2.6761,2.6766,0,0,0,0,0,0,2.6936,2.6901,2.6887,2.6888,2.6871,2.684,2.6843,2.6825,2.6811,2.6807,2.6775,2.6768,2.6766,2.6751,2.6744,2.6744,2.6724,2.6725,2.6754,2.6759,2.6763,2.6766,2.6711,0,0,0,0,0,2.6946,2.694,2.6909,2.6913,2.6905,2.6876,2.687,2.6851,2.6832,2.6824,2.6803,2.6784,2.6772,2.6765,2.6752,2.6755,2.6747,2.6758,2.6763,2.6767,2.6768,2.6766,2.6771,2.6725,2.6725,2.6725,0,0,2.6965,2.6945,2.6943,2.6921,2.6905,2.6898,2.687,2.6864,2.6858,2.6823,2.6816,2.68,2.6777,2.6776,2.6774,2.6763,2.6779,2.6769,2.6772,2.6771,2.6769,2.6773,2.6777,2.6726,2.6726,2.6726,0,0,2.6996,2.6981,2.6982,2.6968,2.6945,2.6926,2.6926,2.6898,2.6886,2.6879,2.6852,2.6844,2.6825,2.6809,2.6799,2.6824,2.6803,2.6821,2.6843,2.6843,2.6846,2.6849,2.6857,2.686,2.6822,2.6822,2.6822,0,2.7023,2.7012,2.6985,2.6981,2.6971,2.694,2.694,2.6927,2.6901,2.6895,2.6884,2.6858,2.684,2.6834,2.684,2.6833,2.6831,2.6823,2.6848,2.6851,2.6853,2.686,2.6863,2.6824,2.6824,2.6824,2.6824,0,2.7045,2.7038,2.7041,2.7018,2.7009,2.7007,2.6979,2.6973,2.6955,2.6936,2.6929,2.6907,2.6889,2.6886,2.6869,2.6877,2.6871,2.6854,2.6834,2.686,2.6866,2.6868,2.6827,2.6827,2.6826,2.6825,0,0,2.71,2.7062,2.7064,2.7052,2.7025,2.7019,2.7015,2.6998,2.6993,2.6976,2.6971,2.6955,2.694,2.6928,2.6908,2.6908,2.6927,2.6891,2.689,2.6897,2.6933,2.6945,2.6949,2.6914,2.6914,2.6915,2.6935,0,2.7125,2.7117,2.7093,2.7092,2.7084,2.7054,2.7051,2.7033,2.7016,2.7006,2.6986,2.6975,2.6956,2.6948,2.6947,2.6925,2.6934,2.6924,2.6907,2.6907,2.6913,2.6952,2.6964,2.6984,2.6937,2.6937,2.6938,0,2.7154,2.714,2.7138,2.7111,2.7107,2.7104,2.7086,2.7078,2.7056,2.7044,2.7031,2.7009,2.7002,2.6984,2.6973,2.6966,2.6958,2.6946,2.6947,2.6943,2.6923,2.6948,2.699,2.6993,2.6941,2.6941,2.6941,0,2.7192,2.7173,2.7169,2.7161,2.7129,2.7128,2.7114,2.7093,2.7084,2.7068,2.7061,2.7045,2.7035,2.7022,2.6996,2.6985,2.6987,2.6967,2.6975,2.6976,2.6976,2.6976,2.7016,2.6973,2.6973,2.6973,2.6973,0,2.7223,2.7222,2.7186,2.7184,2.7182,2.7154,2.7153,2.7137,2.7118,2.7111,2.7084,2.7077,2.7044,2.7033,2.7013,2.7006,2.7002,2.699,2.6985,2.6992,2.6993,2.6985,2.6983,2.6974,2.6973,2.6973,2.6973,0,2.7265,2.7241,2.7235,2.7206,2.7198,2.7198,2.7173,2.7168,2.715,2.7141,2.7137,2.7107,2.7093,2.7066,2.7045,2.7031,2.7028,2.7019,2.7035,2.7031,2.704,2.7039,2.7076,2.7078,2.7035,2.7035,2.7036,0,2.7285,2.7284,2.7255,2.7249,2.7237,2.7227,2.7218,2.719,2.7182,2.7158,2.7156,2.714,2.7126,2.7105,2.708,2.7063,2.7053,2.7067,2.705,2.7057,2.7051,2.7051,2.705,2.707,2.7071,2.7071,2.7072,0,2.7323,2.7311,2.73,2.7284,2.7274,2.726,2.7244,2.7241,2.7209,2.72,2.7186,2.7175,2.7154,2.7138,2.7117,2.7102,2.7081,2.7077,2.7078,2.7085,2.7094,2.7088,2.7044,2.7076,2.7076,2.7075,2.7075,2.7075,2.7354,2.7351,2.7331,2.7318,2.7304,2.729,2.7284,2.7265,2.7253,2.7234,2.7218,2.7205,2.7183,2.7153,2.7139,2.7128,2.7118,2.7119,2.7119,2.7119,2.7122,2.7097,2.7124,2.7124,2.7123,2.7123,2.7123,0,2.7389,2.7374,2.7364,2.7343,2.7333,2.7316,2.7298,2.729,2.7279,2.7261,2.7248,2.7231,2.7215,2.719,2.7172,2.7167,2.7157,2.7163,2.7162,2.7159,2.7132,2.7133,2.7172,2.7172,2.7172,2.7172,2.7172,2.7172,2.7406,2.7401,2.7387,2.7373,2.7358,2.7346,2.7337,2.7323,2.7309,2.7291,2.7279,2.7263,2.7241,2.7221,2.7205,2.7198,2.7192,2.7201,2.719,2.7166,2.7161,2.7157,2.7157,2.72,2.72,2.7217,2.7217,2.7218]}]]